Reflectivity
-20 -20 -20 -12 -3 16 -20 -14 1 6 9 12 14 28 29 29 13 3 11 13 12 1 5 -14 1 -20 -20 -20 -20 -20 -20 -20
-20 -20 -20 4 -4 1 -12 -20 0 8 11 13 10 18 19 25 20 18 20 16 8 5 8 -4 -10 -5 17 18 -6 -20 -20 -20
-20 -20 -20 -16 0 -10 1 -16 -10 9 4 4 3 -18 -2 9 19 14 11 -20 -20 -20 -20 -16 16 23 13 -9 -10 -20 -11 4
-20 -20 -20 -19 3 1 0 2 -16 -20 -19 -12 7 5 15 -3 6 3 -10 -20 -14 -15 -18 17 -19 -12 -18 -20 -20 -20 31 -11
-20 -20 -20 -20 -12 2 7 -2 -1 -20 -17 -6 -20 -16 8 -20 -12 -6 10 -20 -20 -19 -4 -19 -16 -15 -20 -20 -20 -14 33 28
-20 -20 -20 -20 -20 -20 2 2 -17 -2 1 -11 -20 -20 5 -20 11 13 17 -13 -20 -20 -20 -19 -14 -17 0 5 7 28 10 29
-20 -20 -20 -20 -20 -10 5 -2 -11 -8 3 3 -20 -20 -19 -20 7 -9 -15 -10 -16 -20 -19 5 -9 17 -4 13 20 18 29 8
-20 -20 -20 -20 -20 -20 -20 -11 -6 -8 -20 -14 -11 -20 -20 -20 -20 10 -17 -13 -6 -13 -19 -10 14 -10 28 11 9 19 22 -20
-20 -20 -20 -20 -20 -20 -20 -20 -15 4 -6 -20 -4 -20 -20 -20 -20 -3 -20 -20 -19 -20 -12 6 6 14 4 21 -16 -2 -16 -20
-20 -20 -20 -20 -20 -20 -20 -20 -20 -20 6 -5 -20 -0 -20 -5 -14 -20 -20 -20 -20 -20 -13 -10 2 -20 -20 18 -16 -20 -20 -20
-20 -20 -20 -20 -20 -20 -20 -20 -20 -20 -10 4 -5 -20 -20 -20 -20 -20 -20 -20 -20 -20 -20 -20 -20 -20 -20 -20 -20 -20 5 15
-20 -20 -20 -20 -20 -20 -20 -20 -20 -20 -20 -20 -7 -11 -9 -20 -20 -20 -20 -20 -20 -20 -20 -20 -20 -20 -20 -20 -20 -20 0 8
-20 -20 -20 -20 -20 -20 -20 -20 -20 -20 -20 -20 -20 -20 -20 -20 -20 -20 -20 -20 -20 -20 -20 -20 -20 -20 -20 -20 -20 -20 -20 -19
-20 -20 -20 -20 -20 -20 -20 -20 -20 -20 -20 -20 -20 -20 -20 -20 -20 -20 -20 -20 -20 -20 -20 -20 -20 -20 -20 -20 -20 -20 -20 -20
-20 -20 -20 -20 -20 -20 -20 -20 -20 -20 -20 -20 -20 -20 -20 -20 -20 -20 -20 -20 -20 -20 -20 -20 -20 -20 -20 -20 -20 -20 -20 -20
-20 -20 -20 -20 -20 -20 -20 -20 -20 -20 -20 -20 -20 -20 -20 -20 -20 -20 -20 -20 -20 -20 -20 -20 -20 -20 -20 -20 -20 -20 -20 -20
-20 -20 -20 -20 -20 -20 -20 -20 -20 -20 -20 -20 -20 -20 -20 -20 -20 -20 -20 -20 -20 -20 -20 -20 -20 -20 -20 -20 -20 -20 -20 -20
-20 -20 -20 -20 -20 -20 -20 -20 -20 -20 -20 -20 -20 -20 -20 -20 -20 -20 -20 -20 -20 -20 -20 -20 -20 -20 -20 -20 -20 -20 -20 -20
-20 -20 -20 -20 -20 -20 -20 -20 -20 -20 -20 -20 -20 -20 -20 -20 -20 -20 -20 -20 -20 -20 -20 -20 -20 -20 -20 -20 -20 -20 -14 -18
Wind_Speed
10 8 8 8 6 12 10 9 8 10 7 7 8 8 6 9 8 7 10 8 9 8 6 6 7 6 7 7 8 8 8 7
10 9 9 9 7 8 11 11 8 8 7 8 9 8 9 7 8 7 12 14 15 12 9 8 6 6 7 6 6 8 6 7
12 12 11 11 11 11 13 15 15 9 10 9 8 10 10 11 10 6 13 16 16 12 11 10 9 7 10 9 8 5 7 6
15 14 13 13 13 15 13 14 17 13 11 9 9 8 8 9 9 6 7 10 12 12 12 9 11 10 8 10 10 12 9 7
16 16 15 16 14 12 14 15 14 15 12 14 14 15 13 12 12 8 9 7 9 10 12 12 9 9 9 9 8 9 9 5
18 17 16 17 17 14 14 14 14 14 15 15 12 11 12 9 11 12 10 10 10 16 11 8 6 6 7 8 9 9 6 5
17 17 16 15 17 16 14 15 15 13 16 17 18 18 14 10 10 13 10 8 10 14 10 8 8 8 10 9 7 6 9 6
18 19 18 17 18 19 17 17 16 17 15 16 20 15 16 18 14 11 13 10 10 14 11 10 9 10 13 8 7 8 12 8
19 20 18 18 18 18 18 19 18 17 16 17 17 20 13 14 17 12 11 11 12 13 13 11 14 14 13 13 9 12 10 7
19 19 18 18 18 19 18 18 19 20 19 15 17 19 17 14 16 14 12 14 12 16 17 17 17 17 18 15 12 12 10 9
18 18 19 17 18 17 18 18 18 19 20 17 16 18 18 18 17 19 17 15 17 16 17 18 18 18 17 18 15 14 13 12
15 17 18 17 17 18 18 19 19 19 19 20 20 18 19 18 17 18 18 17 18 19 20 20 21 21 19 18 18 17 17 17
12 15 17 18 18 18 20 19 19 18 18 19 19 19 19 20 20 18 18 19 19 20 20 21 21 22 21 21 20 17 19 19
7 12 15 17 18 18 19 19 20 19 19 19 18 18 19 20 19 19 18 18 18 19 20 20 20 20 20 20 20 20 19 19
4 7 11 14 16 18 18 19 19 19 20 21 20 20 21 19 18 19 19 19 19 20 21 20 20 20 20 20 19 20 19 18
7 7 9 11 14 16 18 18 19 19 20 21 20 19 19 19 19 19 19 20 19 19 20 20 21 20 17 21 20 21 21 19
10 15 11 12 14 15 16 18 18 19 20 21 19 18 19 19 19 19 18 20 21 21 22 21 21 16 17 18 19 17 19 18
13 12 11 9 10 8 14 16 16 18 19 20 20 19 20 20 18 19 21 21 18 20 20 19 21 20 18 18 19 17 15 12
14 13 12 11 11 10 10 12 16 18 19 18 18 19 20 19 19 20 20 18 19 18 19 19 18 17 14 16 16 15 16 18
Wind_Direction
181 176 163 155 195 151 150 147 146 140 141 140 129 138 134 138 167 184 181 160 171 159 153 130 155 168 174 187 180 185 174 186
161 175 164 155 159 151 149 148 160 152 154 148 142 152 138 140 170 220 185 182 184 171 166 135 198 165 188 189 181 177 181 183
176 174 175 174 174 171 166 166 169 172 170 159 156 159 157 166 175 201 208 183 188 173 166 174 182 192 194 185 189 169 189 185
182 185 180 177 188 187 178 174 175 180 181 162 156 153 160 170 182 192 213 192 192 180 167 170 191 199 193 187 194 203 197 183
183 188 185 180 183 188 185 181 181 189 179 175 174 173 166 185 191 183 199 198 195 183 181 188 192 202 197 194 203 215 215 197
186 190 186 179 175 186 183 182 193 181 185 183 180 180 195 174 186 185 192 198 194 198 188 181 171 211 214 202 207 211 234 199
186 181 180 183 172 182 185 178 184 193 188 187 187 191 186 181 187 192 186 192 191 197 183 174 192 209 212 209 207 243 230 212
184 180 184 181 182 182 187 183 183 187 193 195 198 196 185 194 190 195 184 183 196 195 185 187 196 215 225 196 197 223 237 222
191 183 186 186 183 190 189 189 188 185 190 197 199 202 202 198 206 196 196 191 194 191 192 196 205 215 214 213 207 219 216 226
192 186 188 186 185 191 193 196 199 187 191 194 201 202 204 199 200 203 199 201 195 195 197 206 209 217 223 230 236 223 222 216
187 190 188 188 187 188 192 201 203 192 190 194 200 206 207 204 201 201 202 201 204 204 206 211 214 219 227 234 236 234 232 231
185 192 188 194 187 190 194 201 205 202 196 196 201 205 205 208 213 211 206 200 199 202 202 207 210 215 220 226 230 233 235 235
193 194 190 195 197 194 197 199 207 207 200 201 200 202 211 209 212 214 212 209 206 207 209 208 213 215 218 223 230 231 232 237
190 191 198 198 201 202 202 203 204 205 204 205 205 205 208 211 214 214 213 216 217 218 218 223 225 224 227 229 231 233 235 238
206 207 207 208 208 208 207 206 208 207 206 209 208 207 209 210 211 213 214 218 218 222 220 225 226 230 233 235 235 235 238 239
308 239 218 216 213 215 214 212 207 211 212 214 215 207 211 213 213 211 214 214 218 221 224 225 228 228 230 232 235 237 240 240
349 337 310 230 216 218 216 217 210 207 216 219 215 213 210 214 212 211 213 217 216 216 219 221 224 228 227 218 232 237 233 232
330 318 315 313 299 249 220 221 218 212 215 221 217 213 214 212 212 213 215 216 216 222 225 225 228 228 216 208 209 228 237 239
343 336 334 325 331 314 290 241 212 218 223 220 220 217 216 210 211 217 218 214 216 218 221 223 226 229 209 205 206 225 235 236